Regional Weather Roundup
Issued by NWS Sioux Falls, SD

Home | Current Version | Previous Version | Graphics & Text | Print | Product List | Glossary Off
Versions: 1 2 3 4 5 6 7 8 9 10 11 12 13 14 15 16 17 18 19 20 21 22 23 24 25 26 27 28 29 30 31 32 33 34 35 36 37 38 39 40 41 42 43 44 45 46 47 48 49 50

000
ASUS43 KFSD 220502
RWRFSD

WEATHER ROUNDUP FOR SE SOUTH DAKOTA/SW MINNESOTA/NW IOWA
NATIONAL WEATHER SERVICE SIOUX FALLS SD
1200 AM CDT MON SEP 22 2014

NOTE: "FAIR" INDICATES FEW OR NO CLOUDS BELOW 12,000 FEET WITH NO
SIGNIFICANT WEATHER AND OR OBSTRUCTIONS TO VISIBILITY.


SDZ038>040-050-052>070-220600-
SOUTHEAST SOUTH DAKOTA

CITY           SKY/WX    TMP DP  RH WIND       PRES   REMARKS
CHAMBERLAIN    CLEAR     50  44  80 SE6       30.27R
HURON          CLEAR     52  45  77 SE3       30.24F
MADISON        FAIR      43  43 100 CALM      30.27S
MITCHELL       CLEAR     54  48  80 S5        30.26S
SIOUX FALLS    CLEAR     49  46  90 CALM      30.27S
WINNER         FAIR      52  42  69 S3        30.27S
YANKTON        CLEAR     52  45  76 CALM      30.27S
$$

MNZ071-072-080-081-089-090-097-098-220600-
SOUTHWEST MINNESOTA

CITY           SKY/WX    TMP DP  RH WIND       PRES   REMARKS
FAIRMONT       CLEAR     48  43  81 CALM      30.26R
JACKSON        CLEAR     46  45  93 CALM      30.27S
LUVERNE        CLEAR     48  45  87 CALM      30.27F
MARSHALL       CLEAR     46  41  81 SW5       30.25S
MONTEVIDEO     CLEAR     48  45  87 SW3       30.26S
PIPESTONE      CLEAR     48  46  93 CALM      30.27S
REDWOOD FALLS  CLEAR     49  46  90 CALM      30.25S
TRACY          CLEAR     50  47  91 CALM      30.27S
WINDOM         CLEAR     45  43  93 CALM      30.27S
WORTHINGTON    CLEAR     45  41  87 CALM      30.28S
$$

IAZ001>003-012>014-020>022-031-032-NEZ013-014-SDZ071-220600-
NORTHWEST IOWA

CITY           SKY/WX    TMP DP  RH WIND       PRES   REMARKS
CHEROKEE       CLEAR     48  48 100 CALM      30.27S
DENISON        CLEAR     48  48 100 CALM      30.25S
ESTHERVILLE    CLEAR     46  44  93 NW6       30.26S
LE MARS          N/A     48  48 100 CALM      30.28R
ORANGE CITY    CLEAR     54  46  76 CALM      30.27S
SHELDON        CLEAR     45  45 100 CALM      30.26S
SIOUX CITY     CLEAR     50  47  89 S3        30.27S
SPENCER        CLEAR     46  43  89 CALM      30.27R
$$

ABBREVIATIONS USED IN REMARKS
   TC - TEMPERATURE IN CELSIUS
  WCI - WIND CHILL INDEX
   HX - HEAT INDEX
  VSB - VISIBILITY



USA.gov is the U.S. government's official web portal to all federal, state and local government web resources and services.